Afton Municipal Airport, WY

6:54 PM MST on November 16, 2019 (GMT -0700)
Afton Municipal

Weather History for KAFO - September, 2019

Change the Weather History Date:

Wednesday, September 4, 2019

  Actual Average Record
Temperature  
Mean Temperature 64 °F -  
Max Temperature 86 °F 76 °F 87 °F (2017)
Min Temperature 41 °F 36 °F 30 °F (2018)
Degree Days  
Heating Degree Days 2    
Growing Degree Days 14 (Base 50)    
Moisture  
Dew Point 39 °F    
Average Humidity 48    
Maximum Humidity 81    
Minimum Humidity 18    
Precipitation  
Precipitation 0.00 in - - ()
Sea Level Pressure  
Sea Level Pressure 30.26 in    
Wind  
Wind Speed 2 mph ()    
Max Wind Speed 9 mph    
Max Gust Speed -    
Visibility 10.0 miles    
Events      
Averages and records for this station are not official NWS values.
T = Trace of Precipitation, MM = Missing Value Source: Averaged Metar Reports

Daily Weather History Graph

Daily Weather History Graph

Search for Another Location

Airport or City:

Astronomy

Sep. 04, 2019 Rise Set
Actual Time 6:51 AM MDT 7:53 PM MDT
Civil Twilight 6:22 AM MDT 8:22 PM MDT
Nautical Twilight 5:48 AM MDT 8:56 PM MDT
Astronomical Twilight 5:12 AM MDT 9:32 PM MDT
Moon 1:05 PM MDT (9/4) 11:21 PM MDT (9/4)
Length of Visible Light 13h 59m
Length of Day
13h 01m
Waxing Crescent, 35% of the Moon is Illuminated
Sep 4
Waxing Crescent
Sep 5
First Quarter
Sep 13
Full
Sep 21
Last Quarter
Sep 28
New

Hourly Weather History & Observations

Time (MDT) Temp. Windchill Dew Point Humidity Pressure Visibility Wind Dir Wind Speed Gust Speed Precip Events Conditions
12:15 AM 51.8 °F - 39.2 °F 62% 30.26 in 10.0 mi Calm Calm - N/A   Clear
12:35 AM 51.8 °F - 39.2 °F 62% 30.26 in 10.0 mi Calm Calm - N/A   Clear
12:55 AM 50.0 °F - 39.2 °F 66% 30.27 in 10.0 mi South 3.5 mph - N/A   Clear
1:15 AM 50.0 °F - 39.2 °F 66% 30.27 in 10.0 mi SSE 3.5 mph - N/A   Clear
1:35 AM 46.4 °F - 37.4 °F 71% 30.27 in 10.0 mi Calm Calm - N/A   Clear
1:55 AM 44.6 °F - 39.2 °F 81% 30.27 in 10.0 mi Calm Calm - N/A   Clear
2:15 AM 46.4 °F - 39.2 °F 76% 30.27 in 10.0 mi Calm Calm - N/A   Clear
2:35 AM 46.4 °F - 37.4 °F 71% 30.27 in 10.0 mi Calm Calm - N/A   Clear
2:55 AM 48.2 °F - 37.4 °F 66% 30.27 in 10.0 mi Calm Calm - N/A   Clear
3:15 AM 48.2 °F - 37.4 °F 66% 30.27 in 10.0 mi Calm Calm - N/A   Clear
3:35 AM 42.8 °F - 37.4 °F 81% 30.27 in 10.0 mi Calm Calm - N/A   Clear
3:55 AM 44.6 °F - 37.4 °F 76% 30.27 in 10.0 mi Calm Calm - N/A   Clear
4:15 AM 44.6 °F - 37.4 °F 76% 30.27 in 10.0 mi Calm Calm - N/A   Clear
4:55 AM 44.6 °F - 37.4 °F 76% 30.28 in 10.0 mi Calm Calm - N/A   Clear
5:15 AM 44.6 °F - 37.4 °F 76% 30.28 in 10.0 mi Calm Calm - N/A   Clear
5:35 AM 41.0 °F - 35.6 °F 81% 30.28 in 10.0 mi Calm Calm - N/A   Clear
5:55 AM 41.0 °F - 35.6 °F 81% 30.28 in 10.0 mi Calm Calm - N/A   Clear
6:15 AM 42.8 °F 41.1 °F 35.6 °F 76% 30.28 in 10.0 mi SW 3.5 mph - N/A   Clear
6:35 AM 42.8 °F - 35.6 °F 76% 30.28 in 10.0 mi Calm Calm - N/A   Clear
6:55 AM 41.0 °F - 35.6 °F 81% 30.28 in 10.0 mi Calm Calm - N/A   Clear
7:15 AM 42.8 °F - 37.4 °F 81% 30.29 in 10.0 mi Calm Calm - N/A   Clear
7:35 AM 42.8 °F - 37.4 °F 81% 30.29 in 10.0 mi Calm Calm - N/A   Clear
7:55 AM 44.6 °F - 37.4 °F 76% 30.30 in 10.0 mi Calm Calm - N/A   Clear
8:15 AM 48.2 °F - 37.4 °F 66% 30.30 in 10.0 mi Calm Calm - N/A   Clear
8:35 AM 51.8 °F - 39.2 °F 62% 30.30 in 10.0 mi Calm Calm - N/A   Clear
8:55 AM 53.6 °F - 39.2 °F 58% 30.30 in 10.0 mi Calm Calm - N/A   Clear
9:15 AM 55.4 °F - 41.0 °F 58% 30.30 in 10.0 mi Calm Calm - N/A   Clear
9:35 AM 59.0 °F - 41.0 °F 51% 30.30 in 10.0 mi Calm Calm - N/A   Clear
9:55 AM 60.8 °F - 41.0 °F 48% 30.30 in 10.0 mi North 3.5 mph - N/A   Clear
10:15 AM 64.4 °F - 42.8 °F 45% 30.30 in 10.0 mi Calm Calm - N/A   Clear
10:35 AM 66.2 °F - 42.8 °F 43% 30.29 in 10.0 mi Calm Calm - N/A   Clear
10:55 AM 68.0 °F - 42.8 °F 40% 30.29 in 10.0 mi Calm Calm - N/A   Clear
11:15 AM 71.6 °F - 44.6 °F 38% 30.28 in 10.0 mi Calm Calm - N/A   Clear
11:35 AM 73.4 °F - 44.6 °F 36% 30.28 in 10.0 mi Calm Calm - N/A   Clear
11:55 AM 77.0 °F - 42.8 °F 29% 30.27 in 10.0 mi Calm Calm - N/A   Clear
12:15 PM 80.6 °F - 41.0 °F 24% 30.27 in 10.0 mi Calm Calm - N/A   Clear
12:35 PM 80.6 °F - 41.0 °F 24% 30.26 in 10.0 mi North 4.6 mph - N/A   Clear
12:55 PM 82.4 °F - 41.0 °F 23% 30.25 in 10.0 mi NE 4.6 mph - N/A   Clear
1:15 PM 82.4 °F - 41.0 °F 23% 30.25 in 10.0 mi North 4.6 mph - N/A   Clear
1:35 PM 82.4 °F - 41.0 °F 23% 30.24 in 10.0 mi West 3.5 mph - N/A   Scattered Clouds
1:55 PM 82.4 °F - 41.0 °F 23% 30.24 in 10.0 mi WNW 4.6 mph - N/A   Scattered Clouds
2:15 PM 84.2 °F - 39.2 °F 20% 30.23 in 10.0 mi North 4.6 mph - N/A   Scattered Clouds
2:35 PM 82.4 °F - 39.2 °F 21% 30.22 in 10.0 mi North 4.6 mph - N/A   Scattered Clouds
2:55 PM 84.2 °F - 37.4 °F 19% 30.22 in 10.0 mi SSW 3.5 mph - N/A   Clear
3:15 PM 86.0 °F - 37.4 °F 18% 30.21 in 10.0 mi WNW 6.9 mph - N/A   Clear
3:35 PM 86.0 °F - 37.4 °F 18% 30.21 in 10.0 mi West 9.2 mph - N/A   Clear
3:55 PM 86.0 °F - 37.4 °F 18% 30.21 in 10.0 mi NW 6.9 mph - N/A   Clear
4:15 PM 82.4 °F - 41.0 °F 23% 30.21 in 10.0 mi West 9.2 mph - N/A   Mostly Cloudy
4:35 PM 86.0 °F - 37.4 °F 18% 30.20 in 10.0 mi WNW 6.9 mph - N/A   Scattered Clouds
4:55 PM 80.6 °F - 42.8 °F 26% 30.20 in 10.0 mi NW 5.8 mph - N/A   Clear
5:15 PM 86.0 °F - 42.8 °F 22% 30.20 in 10.0 mi NW 9.2 mph - N/A   Scattered Clouds
5:35 PM 82.4 °F - 42.8 °F 25% 30.20 in 10.0 mi NW 9.2 mph - N/A   Clear
5:55 PM 82.4 °F - 41.0 °F 23% 30.20 in 10.0 mi North 5.8 mph - N/A   Clear
6:15 PM 78.8 °F - 42.8 °F 28% 30.21 in 10.0 mi NW 6.9 mph - N/A   Mostly Cloudy
6:35 PM 73.4 °F - 42.8 °F 33% 30.21 in 10.0 mi WNW 5.8 mph - N/A   Scattered Clouds
6:55 PM 71.6 °F - 41.0 °F 33% 30.21 in 10.0 mi NNE 3.5 mph - N/A   Clear
7:15 PM 75.2 °F - 37.4 °F 25% 30.22 in 10.0 mi NE 4.6 mph - N/A   Clear
7:35 PM 73.4 °F - 37.4 °F 27% 30.23 in 10.0 mi NE 5.8 mph - N/A   Clear
7:55 PM 71.6 °F - 37.4 °F 29% 30.23 in 10.0 mi ENE 5.8 mph - N/A   Clear
8:15 PM 69.8 °F - 37.4 °F 31% 30.24 in 10.0 mi East 5.8 mph - N/A   Clear
8:35 PM 69.8 °F - 39.2 °F 33% 30.25 in 10.0 mi Calm Calm - N/A   Clear
8:55 PM 60.8 °F - 41.0 °F 48% 30.25 in 10.0 mi Calm Calm - N/A   Clear
9:15 PM 55.4 °F - 42.8 °F 63% 30.25 in 10.0 mi South 3.5 mph - N/A   Clear
9:35 PM 64.4 °F - 39.2 °F 40% 30.25 in 10.0 mi Calm Calm - N/A   Clear
9:55 PM 60.8 °F - 41.0 °F 48% 30.25 in 10.0 mi SW 3.5 mph - N/A   Clear
10:15 PM 59.0 °F - 41.0 °F 51% 30.26 in 10.0 mi SW 4.6 mph - N/A   Clear
10:35 PM 57.2 °F - 39.2 °F 51% 30.26 in 10.0 mi Calm Calm - N/A   Clear
10:55 PM 57.2 °F - 41.0 °F 55% 30.27 in 10.0 mi Calm Calm - N/A   Clear
11:15 PM 55.4 °F - 39.2 °F 54% 30.27 in 10.0 mi South 3.5 mph - N/A   Clear
11:35 PM 53.6 °F - 39.2 °F 58% 30.27 in 10.0 mi Calm Calm - N/A   Clear
11:55 PM 55.4 °F - 39.2 °F 54% 30.27 in 10.0 mi Calm Calm - N/A   Clear